When you browse on this site, cookies collect data to enhance your experience and personalize the content and advertising you see.
Visit our Privacy Policy to learn more. By continuing to use the site, you agree to this use of cookies and data.
  • In Lithuania
  • List of Countries
  • For 7 days
  • Water Temperature
  • Satellite Maps
  • Weather Map
  • Weather Widgets
  • user-avatar
    Login

    Hourly Weather Samos

    Today, 11 December, Tuesday

    Time Temperature Precipitation Wind Pressure Humidity
    00:00 +6°C° 0.1 mm 9 mps 715 mmHg 87%
    01:00 +5°C° 0.1 mm 8 mps 715 mmHg 87%
    02:00 +5°C° 0 mm 7 mps 715 mmHg 87%
    03:00 +4°C° 0 mm 6 mps 716 mmHg 87%
    04:00 +5°C° 0 mm 5 mps 716 mmHg 87%
    05:00 +4°C° 0 mm 4 mps 716 mmHg 87%
    06:00 +4°C° 0 mm 3 mps 717 mmHg 87%
    07:00 +5°C° 0 mm 2 mps 717 mmHg 87%
    08:00 +7°C° 0 mm 1 mps 717 mmHg 87%
    09:00 +8°C° 0 mm 1 mps 717 mmHg 82%
    10:00 +9°C° 0 mm 1 mps 717 mmHg 77%
    11:00 +10°C° 0 mm 1 mps 718 mmHg 72%
    12:00 +10°C° 0.1 mm 1 mps 718 mmHg 70%
    13:00 +10°C° 0.1 mm 1 mps 718 mmHg 68%
    14:00 +10°C° 0.1 mm 1 mps 717 mmHg 66%
    15:00 +10°C° 0.1 mm 1 mps 717 mmHg 70%
    16:00 +9°C° 0.1 mm 1 mps 717 mmHg 74%
    17:00 +8°C° 0.1 mm 1 mps 717 mmHg 79%
    18:00 +8°C° 0.1 mm 1 mps 717 mmHg 80%
    19:00 +8°C° 0.1 mm 1 mps 717 mmHg 82%
    20:00 +6°C° 0.1 mm 2 mps 717 mmHg 83%
    21:00 +6°C° 0.4 mm 2 mps 718 mmHg 84%
    22:00 +5°C° 0.4 mm 3 mps 718 mmHg 84%
    23:00 +5°C° 0.4 mm 4 mps 718 mmHg 85%

    Tomorrow, 12 December, Wednesday

    Time Temperature Precipitation Wind Pressure Humidity
    00:00 +3°C° 0.7 mm 5 mps 718 mmHg 87%
    01:00 +3°C° 0.7 mm 5 mps 718 mmHg 88%
    02:00 +3°C° 0.7 mm 6 mps 719 mmHg 90%
    03:00 +3°C° 0.1 mm 6 mps 719 mmHg 90%
    04:00 +3°C° 0.1 mm 6 mps 719 mmHg 90%
    05:00 +2°C° 0.1 mm 7 mps 719 mmHg 89%
    06:00 +2°C° 0 mm 6 mps 720 mmHg 88%
    07:00 +2°C° 0 mm 6 mps 720 mmHg 86%
    08:00 +3°C° 0 mm 6 mps 721 mmHg 84%
    09:00 +4°C° 0 mm 6 mps 721 mmHg 77%
    10:00 +5°C° 0 mm 6 mps 722 mmHg 70%
    11:00 +7°C° 0 mm 6 mps 723 mmHg 63%
    12:00 +7°C° 0 mm 6 mps 723 mmHg 61%
    13:00 +7°C° 0 mm 6 mps 722 mmHg 59%
    14:00 +7°C° 0 mm 6 mps 722 mmHg 57%
    15:00 +5°C° 0 mm 6 mps 723 mmHg 60%
    16:00 +4°C° 0 mm 6 mps 723 mmHg 64%
    17:00 +3°C° 0 mm 5 mps 723 mmHg 68%
    18:00 +3°C° 0 mm 5 mps 723 mmHg 70%
    19:00 +3°C° 0 mm 4 mps 723 mmHg 71%
    20:00 +3°C° 0 mm 4 mps 724 mmHg 73%
    21:00 +2°C° 0 mm 3 mps 724 mmHg 74%
    22:00 +2°C° 0 mm 3 mps 724 mmHg 75%
    23:00 +3°C° 0 mm 2 mps 724 mmHg 77%

    Day after tomorrow, 13 December, Thursday

    Time Temperature Precipitation Wind Pressure Humidity
    00:00 +3°C° 0 mm 2 mps 724 mmHg 78%
    01:00 +2°C° 0 mm 2 mps 724 mmHg 79%
    02:00 +2°C° 0 mm 2 mps 724 mmHg 81%
    03:00 +2°C° 0 mm 2 mps 724 mmHg 81%
    04:00 +2°C° 0 mm 2 mps 724 mmHg 81%
    05:00 +1°C° 0 mm 2 mps 724 mmHg 82%
    06:00 0°C° 0 mm 3 mps 724 mmHg 81%
    07:00 0°C° 0 mm 3 mps 724 mmHg 80%
    08:00 0°C° 0 mm 4 mps 725 mmHg 79%
    09:00 +1°C° 0 mm 4 mps 724 mmHg 69%
    10:00 +4°C° 0 mm 4 mps 724 mmHg 59%
    11:00 +6°C° 0 mm 4 mps 724 mmHg 49%
    12:00 +6°C° 0.1 mm 4 mps 723 mmHg 46%
    13:00 +7°C° 0.1 mm 4 mps 723 mmHg 43%
    14:00 +7°C° 0.1 mm 4 mps 722 mmHg 40%
    15:00 +6°C° 0.8 mm 5 mps 722 mmHg 48%
    16:00 +4°C° 0.8 mm 6 mps 722 mmHg 56%
    17:00 +3°C° 0.8 mm 7 mps 721 mmHg 64%
    18:00 +3°C° 0.9 mm 7 mps 721 mmHg 66%
    19:00 +3°C° 0.9 mm 6 mps 721 mmHg 68%
    20:00 +3°C° 0.9 mm 6 mps 721 mmHg 69%
    21:00 +3°C° 0.4 mm 6 mps 721 mmHg 71%
    22:00 +3°C° 0.4 mm 6 mps 721 mmHg 73%
    23:00 +3°C° 0.4 mm 6 mps 721 mmHg 75%

    14 December, Friday

    Time Temperature Precipitation Wind Pressure Humidity
    00:00 +3°C° 0.2 mm 6 mps 721 mmHg 76%
    01:00 +3°C° 0.2 mm 5 mps 721 mmHg 77%
    02:00 +5°C° 0.2 mm 5 mps 721 mmHg 78%
    03:00 +5°C° 0.4 mm 4 mps 721 mmHg 80%
    04:00 +5°C° 0.4 mm 4 mps 721 mmHg 81%
    05:00 +5°C° 0.4 mm 4 mps 722 mmHg 83%
    06:00 +5°C° 0.4 mm 4 mps 722 mmHg 85%
    07:00 +6°C° 0.4 mm 4 mps 722 mmHg 86%
    08:00 +6°C° 0.4 mm 4 mps 723 mmHg 88%
    09:00 +7°C° 0.3 mm 4 mps 723 mmHg 86%
    10:00 +8°C° 0.3 mm 4 mps 723 mmHg 83%
    11:00 +9°C° 0.3 mm 5 mps 723 mmHg 81%
    12:00 +10°C° 0.2 mm 5 mps 723 mmHg 79%
    13:00 +12°C° 0.2 mm 5 mps 723 mmHg 76%
    14:00 +13°C° 0.2 mm 5 mps 723 mmHg 74%
    15:00 +12°C° 0.2 mm 5 mps 723 mmHg 77%
    16:00 +10°C° 0.2 mm 5 mps 723 mmHg 81%
    17:00 +10°C° 0.2 mm 5 mps 723 mmHg 84%
    18:00 +9°C° 0 mm 5 mps 723 mmHg 85%
    19:00 +9°C° 0 mm 5 mps 723 mmHg 87%
    20:00 +8°C° 0 mm 5 mps 723 mmHg 88%
    21:00 +8°C° 0 mm 5 mps 723 mmHg 88%
    22:00 +8°C° 0 mm 6 mps 723 mmHg 88%
    23:00 +7°C° 0 mm 6 mps 723 mmHg 88%

    15 December, Saturday

    Time Temperature Precipitation Wind Pressure Humidity
    00:00 +7°C° 0 mm 6 mps 723 mmHg 88%
    01:00 +7°C° 0 mm 6 mps 722 mmHg 88%
    02:00 +7°C° 0 mm 6 mps 722 mmHg 88%
    03:00 +7°C° 0.1 mm 6 mps 722 mmHg 87%
    04:00 +6°C° 0.1 mm 7 mps 722 mmHg 87%
    05:00 +6°C° 0.1 mm 7 mps 722 mmHg 86%
    06:00 +6°C° 0.1 mm 7 mps 722 mmHg 86%
    07:00 +6°C° 0.1 mm 7 mps 722 mmHg 86%
    08:00 +6°C° 0.1 mm 7 mps 722 mmHg 85%
    09:00 +9°C° 0.2 mm 7 mps 722 mmHg 81%
    10:00 +10°C° 0.2 mm 8 mps 721 mmHg 76%
    11:00 +12°C° 0.2 mm 8 mps 721 mmHg 71%
    12:00 +12°C° 0.6 mm 8 mps 721 mmHg 70%
    13:00 +13°C° 0.6 mm 8 mps 721 mmHg 68%
    14:00 +13°C° 0.6 mm 9 mps 720 mmHg 67%
    15:00 +12°C° 0.7 mm 9 mps 720 mmHg 71%
    16:00 +11°C° 0.7 mm 8 mps 720 mmHg 76%
    17:00 +10°C° 0.7 mm 8 mps 720 mmHg 81%
    18:00 +10°C° 0.3 mm 8 mps 720 mmHg 82%
    19:00 +9°C° 0.3 mm 8 mps 720 mmHg 83%
    20:00 +9°C° 0.3 mm 8 mps 720 mmHg 84%
    21:00 +9°C° 0.7 mm 8 mps 720 mmHg 85%
    22:00 +7°C° 0.7 mm 8 mps 720 mmHg 86%
    23:00 +7°C° 0.7 mm 8 mps 719 mmHg 86%

    16 December, Sunday

    Time Temperature Precipitation Wind Pressure Humidity
    00:00 +7°C° 1.2 mm 8 mps 719 mmHg 87%
    01:00 +7°C° 1.2 mm 8 mps 719 mmHg 88%
    02:00 +7°C° 1.2 mm 9 mps 719 mmHg 89%
    03:00 +7°C° 1.4 mm 8 mps 718 mmHg 89%
    04:00 +7°C° 1.4 mm 8 mps 718 mmHg 89%
    05:00 +7°C° 1.4 mm 8 mps 718 mmHg 89%
    06:00 +8°C° 1.6 mm 7 mps 718 mmHg 89%
    07:00 +8°C° 1.6 mm 7 mps 718 mmHg 89%
    08:00 +8°C° 1.6 mm 7 mps 719 mmHg 89%
    09:00 +9°C° 1.2 mm 7 mps 719 mmHg 84%
    10:00 +10°C° 1.2 mm 6 mps 719 mmHg 80%
    11:00 +11°C° 1.2 mm 6 mps 719 mmHg 76%
    12:00 +11°C° 0.9 mm 6 mps 719 mmHg 73%
    13:00 +13°C° 0.9 mm 6 mps 719 mmHg 70%
    14:00 +14°C° 0.9 mm 6 mps 719 mmHg 67%
    15:00 +13°C° 0.8 mm 5 mps 719 mmHg 70%
    16:00 +12°C° 0.8 mm 5 mps 719 mmHg 74%
    17:00 +10°C° 0.8 mm 5 mps 719 mmHg 77%
    18:00 +10°C° 0.7 mm 5 mps 719 mmHg 79%
    19:00 +9°C° 0.7 mm 5 mps 720 mmHg 80%
    20:00 +10°C° 0.7 mm 4 mps 720 mmHg 82%
    21:00 +10°C° 0.9 mm 4 mps 720 mmHg 82%
    22:00 +8°C° 0.9 mm 4 mps 720 mmHg 83%
    23:00 +8°C° 0.9 mm 4 mps 721 mmHg 83%
    Show more